This is the latest recevied weather packets stored in our database for station/object KT2UU-13. If no packets are shown the sender has not sent any weather packets the latest 10 day(s).
| Time | Temp. | Humidity | Pressure | Rain* | Wind** | Luminosity | Snow |
|---|---|---|---|---|---|---|---|
| 1778176138 | 17.22° C | 84% | 1014.8 hPa | 0 mm | - | - | - |
| 1778175835 | 16.67° C | 86% | 1014.7 hPa | 0 mm | - | - | - |
| 1778175533 | 16.67° C | 86% | 1015 hPa | 0 mm | - | - | - |
| 1778175230 | 16.67° C | 85% | 1014.8 hPa | 0 mm | - | - | - |
| 1778174926 | 16.67° C | 87% | 1014.9 hPa | 0 mm | - | - | - |
| 1778174623 | 16.67° C | 87% | 1014.7 hPa | 0 mm | - | - | - |
| 1778174319 | 16.11° C | 88% | 1014.6 hPa | 0 mm | - | - | - |
| 1778174016 | 15.56° C | 90% | 1014.9 hPa | 0 mm | - | - | - |
| 1778173713 | 15.56° C | 90% | 1014.9 hPa | 0 mm | - | - | - |
| 1778173409 | 15° C | 91% | 1014.9 hPa | 0 mm | - | - | - |
| 1778173105 | 15° C | 92% | 1015.2 hPa | 0 mm | - | - | - |
| 1778172801 | 14.44° C | 94% | 1015.1 hPa | 0 mm | - | - | - |
| 1778172497 | 14.44° C | 94% | 1015.1 hPa | 0 mm | - | - | - |
| 1778172195 | 15° C | 94% | 1015.1 hPa | 0 mm | - | - | - |
| 1778171892 | 15° C | 94% | 1015.1 hPa | 0 mm | - | - | - |
| 1778171589 | 15° C | 94% | 1015.1 hPa | 0 mm | - | - | - |
| 1778171285 | 15° C | 95% | 1014.9 hPa | 0 mm | - | - | - |
| 1778170981 | 15.56° C | 94% | 1014.7 hPa | 0 mm | - | - | - |
| 1778170678 | 15.56° C | 95% | 1014.7 hPa | 0 mm | - | - | - |
| 1778170375 | 15.56° C | 94% | 1014.7 hPa | 0 mm | - | - | - |
| 1778170071 | 15.56° C | 95% | 1014.6 hPa | 0 mm | - | - | - |
| 1778169767 | 15° C | 95% | 1014.2 hPa | 0 mm | - | - | - |
| 1778169463 | 15.56° C | 95% | 1014.4 hPa | 0 mm | - | - | - |
| 1778169159 | 15° C | 96% | 1014.2 hPa | 0 mm | - | - | - |
| 1778168856 | 15° C | 97% | 1014.3 hPa | 0 mm | - | - | - |
* Rain latest hour (hover to see other rain measurements)
** Current wind speed in m/s (hover to see current wind gust speed)